Regional Weather Roundup
Issued by NWS

Home | Current Version | Previous Version | Graphics & Text | Print | Product List | Glossary On
Versions: 1 2 3 4 5 6 7 8 9 10 11 12 13 14 15 16 17 18 19 20 21 22 23 24 25 26 27 28 29 30 31 32 33 34 35 36 37 38 39 40 41 42 43 44 45 46 47 48 49 50
000
ASUS43 KFSD 160502
RWRSD

WEATHER ROUNDUP FOR SOUTH DAKOTA
NATIONAL WEATHER SERVICE SIOUX FALLS SD
1200 AM CDT WED APR 16 2014

NOTE: "FAIR" INDICATES FEW OR NO CLOUDS BELOW 12,000 FEET WITH NO
SIGNIFICANT WEATHER AND/OR OBSTRUCTIONS TO VISIBILITY.


SDZ001>005-009-010-012>017-160600-
NORTHWEST AND NORTH CENTRAL SOUTH DAKOTA

CITY           SKY/WX    TMP DP  RH WIND       PRES   REMARKS
BUFFALO          N/A     45  26  47 NE12      29.56R
MOBRIDGE       MOCLDY    33  18  53 E28G39    29.60F WCI  20
$$

SDZ012>016-024>037-041>051-057-063-072>074-160600-
SOUTHWEST AND SOUTH CENTRAL SOUTH DAKOTA

CITY           SKY/WX    TMP DP  RH WIND       PRES   REMARKS
RAPID CTY ARPT CLOUDY    47  37  68 NW30G38   29.59R
PIERRE         CLOUDY    47  29  49 E16       29.52F
CUSTER         CLOUDY    42  29  59 N9        29.60S
ELLSWORTH AFB  LGT RAIN  46  39  77 NW28G36   29.58S
PHILIP         CLOUDY    51  23  33 N9        29.51R
PINE RIDGE     CLOUDY    52  29  41 S8        29.53F
WINNER         FAIR      54  30  40 SE14      29.50F
$$

SDZ004>011-016>023-039-040-160600-
NORTHEAST SOUTH DAKOTA

CITY           SKY/WX    TMP DP  RH WIND       PRES   REMARKS
ABERDEEN       CLOUDY    33  17  51 E22G28    29.77F WCI  21
WATERTOWN      CLOUDY    34  21  59 SE17G25   29.75F WCI  23
SISSETON         N/A     32  15  49 SE21G28   29.87F WCI  20
$$

SDZ017-020-022-023-036>040-048>070-160600-
SOUTHEAST SOUTH DAKOTA

CITY           SKY/WX    TMP DP  RH WIND       PRES   REMARKS
SIOUX FALLS    CLOUDY    40  26  57 SE13G25   29.75F
HURON          CLOUDY    42  25  50 SE20G26   29.65F
CHAMBERLAIN      N/A     47  29  49 SE17      29.54F
MITCHELL       CLOUDY    43  27  53 SE22G30   29.64F
YANKTON        CLOUDY    45  28  53 SE20G25   29.70F
$$

ABBREVIATIONS USED IN REMARKS
   TC - TEMPERATURE IN CELSIUS
  WCI - WIND CHILL INDEX
   HX - HEAT INDEX
  VSB - VISIBILITY




USA.gov is the U.S. government's official web portal to all federal, state and local government web resources and services.